Weather History for Huntingburg, IN

Change the Weather History Date:

Friday, February 8, 2013

  Actual Average Record
Temperature  
Mean Temperature 42 °F -  
Max Temperature 48 °F 42 °F 60 °F (2001)
Min Temperature 33 °F 27 °F 3 °F (2003)
Degree Days  
Heating Degree Days 24    
Moisture  
Dew Point 29 °F    
Average Humidity 76    
Maximum Humidity 93    
Minimum Humidity 70    
Precipitation  
Precipitation 0.03 in - - ()
Sea Level Pressure  
Sea Level Pressure 30.19 in    
Wind  
Wind Speed 13 mph (NNW)    
Max Wind Speed 20 mph    
Max Gust Speed 26 mph    
Visibility 10 miles    
Events      
Averages and records for this station are not official NWS values.
T = Trace of Precipitation, MM = Missing Value Source: NWS Daily Summary

Daily Weather History Graph

Daily Weather History Graph

Search for Another Location

Airport:

Trip Planner

Search our weather history database for the weather conditions in past years. The results will help you decide how hot, cold, wet, or windy it might be!

Date:

Astronomy

Feb. 08, 2013 Rise Set
Actual Time 7:45 AM EST 6:18 PM EST
Civil Twilight 7:18 AM EST 6:46 PM EST
Nautical Twilight 6:47 AM EST 7:17 PM EST
Astronomical Twilight 6:16 AM EST 7:48 PM EST
Moon 6:13 AM EST (2/8) 4:52 PM EST (2/8)
Length of Visible Light 11h 27m
Length of Day
10h 33m
Waning Crescent, 3% of the Moon is Illuminated
Feb 8
Waning Crescent
Feb 10
New
Feb 17
First Quarter
Feb 25
Full
Mar 4
Last Quarter

Hourly Weather History & Observations

Time (EST) Temp. Windchill Dew Point Humidity Pressure Visibility Wind Dir Wind Speed Gust Speed Precip Events Conditions
12:15 AM 50.0 °F - 46.4 °F 87% 29.88 in 9.0 mi NW 11.5 mph 18.4 mph N/A   Overcast
12:35 AM 48.2 °F - 46.4 °F 93% 29.88 in 5.0 mi NW 16.1 mph 20.7 mph 0.01 in   Overcast
12:55 AM 48.2 °F - 44.6 °F 87% 29.90 in 7.0 mi WNW 13.8 mph 21.9 mph 0.01 in   Overcast
1:15 AM 46.4 °F 39.0 °F 42.8 °F 87% 29.91 in 7.0 mi NW 19.6 mph 25.3 mph N/A   Overcast
1:55 AM 44.6 °F 38.4 °F 41.0 °F 87% 29.92 in 9.0 mi NNW 12.7 mph 20.7 mph N/A   Overcast
2:15 AM 44.6 °F 38.4 °F 39.2 °F 81% 29.93 in 7.0 mi NW 12.7 mph - 0.01 in   Overcast
2:35 AM 42.8 °F 35.1 °F 39.2 °F 87% 29.94 in 9.0 mi NW 16.1 mph 23.0 mph 0.02 in   Overcast
2:55 AM 42.8 °F 35.4 °F 37.4 °F 81% 29.95 in 10.0 mi NW 15.0 mph - 0.02 in   Overcast
3:15 AM 41.0 °F 32.5 °F 35.6 °F 81% 29.97 in 10.0 mi NW 17.3 mph 23.0 mph N/A   Overcast
3:35 AM 39.2 °F 31.2 °F 35.6 °F 87% 29.97 in 10.0 mi NNW 13.8 mph - N/A   Overcast
3:55 AM 39.2 °F 30.5 °F 35.6 °F 87% 29.98 in 10.0 mi NW 16.1 mph 20.7 mph N/A   Overcast
4:35 AM 39.2 °F 30.5 °F 33.8 °F 81% 29.99 in 10.0 mi NNW 16.1 mph 21.9 mph N/A   Overcast
4:55 AM 37.4 °F 29.8 °F 33.8 °F 87% 30.00 in 10.0 mi NNW 11.5 mph - N/A   Overcast
5:15 AM 37.4 °F 29.3 °F 33.8 °F 87% 30.02 in 10.0 mi NNW 12.7 mph 19.6 mph N/A   Overcast
5:35 AM 37.4 °F 28.2 °F 30.2 °F 75% 30.03 in 10.0 mi NNW 16.1 mph 20.7 mph N/A   Overcast
5:55 AM 37.4 °F 27.5 °F 30.2 °F 75% 30.04 in 10.0 mi NW 18.4 mph 23.0 mph N/A   Overcast
6:15 AM 37.4 °F 27.8 °F 30.2 °F 75% 30.06 in 10.0 mi NNW 17.3 mph 21.9 mph N/A   Overcast
6:35 AM 35.6 °F 27.5 °F 30.2 °F 81% 30.07 in 10.0 mi NW 11.5 mph 23.0 mph N/A   Overcast
7:15 AM 35.6 °F 27.5 °F 30.2 °F 81% 30.08 in 10.0 mi NW 11.5 mph - N/A   Overcast
7:35 AM 35.6 °F 26.2 °F 30.2 °F 81% 30.10 in 10.0 mi NW 15.0 mph 21.9 mph N/A   Overcast
7:55 AM 35.6 °F 25.9 °F 30.2 °F 81% 30.11 in 10.0 mi NNW 16.1 mph 24.2 mph N/A   Overcast
8:15 AM 35.6 °F 26.2 °F 28.4 °F 75% 30.12 in 10.0 mi NW 15.0 mph 26.5 mph N/A   Overcast
8:55 AM 35.6 °F 26.6 °F 28.4 °F 75% 30.15 in 10.0 mi NNW 13.8 mph 24.2 mph N/A   Overcast
9:15 AM 35.6 °F 26.2 °F 28.4 °F 75% 30.16 in 10.0 mi NNW 15.0 mph 24.2 mph N/A   Overcast
9:35 AM 35.6 °F 26.2 °F 28.4 °F 75% 30.17 in 10.0 mi NNW 15.0 mph 23.0 mph N/A   Overcast
9:55 AM 35.6 °F 26.2 °F 28.4 °F 75% 30.18 in 10.0 mi NNW 15.0 mph 21.9 mph N/A   Overcast
10:15 AM 35.6 °F 25.9 °F 28.4 °F 75% 30.19 in 10.0 mi NNW 16.1 mph 21.9 mph N/A   Overcast
10:35 AM 35.6 °F 25.5 °F 28.4 °F 75% 30.20 in 10.0 mi NNW 17.3 mph 25.3 mph N/A   Overcast
10:55 AM 35.6 °F 25.2 °F 28.4 °F 75% 30.21 in 10.0 mi NNW 18.4 mph 24.2 mph N/A   Overcast
11:15 AM 35.6 °F 27.5 °F 28.4 °F 75% 30.22 in 10.0 mi NNW 11.5 mph 21.9 mph N/A   Overcast
11:35 AM 35.6 °F 26.6 °F 26.6 °F 70% 30.23 in 10.0 mi NNW 13.8 mph 24.2 mph N/A   Overcast
11:55 AM 35.6 °F 27.1 °F 26.6 °F 70% 30.24 in 10.0 mi NW 12.7 mph 24.2 mph N/A   Overcast
12:15 PM 33.8 °F 25.3 °F 26.6 °F 75% 30.24 in 10.0 mi NNW 11.5 mph 20.7 mph N/A   Overcast
12:35 PM 35.6 °F 26.2 °F 28.4 °F 75% 30.24 in 10.0 mi NNW 15.0 mph 20.7 mph N/A   Overcast
12:55 PM 35.6 °F 26.2 °F 26.6 °F 70% 30.24 in 10.0 mi NNW 15.0 mph 23.0 mph N/A   Overcast
1:15 PM 33.8 °F 23.9 °F 26.6 °F 75% 30.25 in 10.0 mi NNW 15.0 mph 20.7 mph N/A   Overcast
1:35 PM 33.8 °F 25.3 °F 26.6 °F 75% 30.25 in 10.0 mi NW 11.5 mph 20.7 mph N/A   Overcast
2:15 PM 33.8 °F 24.8 °F 26.6 °F 75% 30.26 in 10.0 mi NW 12.7 mph 19.6 mph N/A   Overcast
2:35 PM 33.8 °F 24.8 °F 26.6 °F 75% 30.26 in 10.0 mi NNW 12.7 mph - N/A   Overcast
2:55 PM 33.8 °F 25.3 °F 26.6 °F 75% 30.26 in 10.0 mi NW 11.5 mph - N/A   Overcast
3:15 PM 33.8 °F 25.3 °F 26.6 °F 75% 30.26 in 10.0 mi NNW 11.5 mph 17.3 mph N/A   Overcast
3:35 PM 35.6 °F 27.5 °F 26.6 °F 70% 30.27 in 10.0 mi NNW 11.5 mph - N/A   Overcast
3:55 PM 35.6 °F 28.6 °F 26.6 °F 70% 30.28 in 10.0 mi NNW 9.2 mph 18.4 mph N/A   Overcast
4:15 PM 35.6 °F 27.5 °F 26.6 °F 70% 30.28 in 10.0 mi NNW 11.5 mph - N/A   Overcast
4:35 PM 33.8 °F 24.3 °F 26.6 °F 75% 30.29 in 10.0 mi NNW 13.8 mph 20.7 mph N/A   Overcast
4:55 PM 33.8 °F 27.0 °F 26.6 °F 75% 30.29 in 10.0 mi NNW 8.1 mph 19.6 mph N/A   Overcast
5:15 PM 33.8 °F 23.9 °F 24.8 °F 70% 30.31 in 10.0 mi NNW 15.0 mph 19.6 mph N/A   Overcast
5:35 PM 33.8 °F 26.4 °F 24.8 °F 70% 30.32 in 10.0 mi North 9.2 mph - N/A   Overcast
5:55 PM 33.8 °F 27.7 °F 24.8 °F 70% 30.32 in 10.0 mi North 6.9 mph - N/A   Overcast
6:15 PM 33.8 °F 26.4 °F 24.8 °F 70% 30.33 in 10.0 mi North 9.2 mph 19.6 mph N/A   Overcast
6:35 PM 33.8 °F 24.3 °F 24.8 °F 70% 30.33 in 10.0 mi North 13.8 mph 18.4 mph N/A   Overcast
6:55 PM 33.8 °F 26.4 °F 24.8 °F 70% 30.34 in 10.0 mi North 9.2 mph - N/A   Overcast
7:15 PM 33.8 °F 27.7 °F 24.8 °F 70% 30.35 in 10.0 mi North 6.9 mph - N/A   Overcast
7:35 PM 33.8 °F 26.4 °F 24.8 °F 70% 30.36 in 10.0 mi North 9.2 mph - N/A   Overcast
7:55 PM 33.8 °F 25.3 °F 24.8 °F 70% 30.37 in 10.0 mi NNW 11.5 mph - N/A   Overcast
8:15 PM 33.8 °F 25.3 °F 24.8 °F 70% 30.37 in 10.0 mi NNW 11.5 mph 16.1 mph N/A   Overcast
8:35 PM 33.8 °F 26.4 °F 24.8 °F 70% 30.36 in 10.0 mi North 9.2 mph - N/A   Overcast
8:55 PM 33.8 °F 26.4 °F 24.8 °F 70% 30.35 in 10.0 mi North 9.2 mph - N/A   Overcast
9:15 PM 33.8 °F 28.6 °F 24.8 °F 70% 30.36 in 10.0 mi North 5.8 mph - N/A   Overcast
9:35 PM 33.8 °F 27.0 °F 26.6 °F 75% 30.36 in 10.0 mi North 8.1 mph - N/A   Overcast
9:55 PM 33.8 °F 26.4 °F 26.6 °F 75% 30.36 in 10.0 mi NNE 9.2 mph - N/A   Overcast
10:15 PM 33.8 °F 27.0 °F 24.8 °F 70% 30.37 in 10.0 mi North 8.1 mph - N/A   Overcast
10:35 PM 33.8 °F 29.6 °F 24.8 °F 70% 30.36 in 10.0 mi NNE 4.6 mph - N/A   Overcast
10:55 PM 33.8 °F 27.0 °F 24.8 °F 70% 30.36 in 10.0 mi NE 8.1 mph - N/A   Overcast
11:15 PM 33.8 °F 29.6 °F 24.8 °F 70% 30.38 in 10.0 mi NNE 4.6 mph - N/A   Overcast
11:35 PM 33.8 °F 28.6 °F 24.8 °F 70% 30.37 in 10.0 mi NE 5.8 mph - N/A   Overcast
11:55 PM 33.8 °F - 24.8 °F 70% 30.38 in 10.0 mi Calm Calm - N/A   Overcast